Wind_Speed
27 28 28 29 31 31 31 30 29 28 28 28 27 27 26 25 24 24 23 22 22 21 20 19 18 17 16 15 15 14 14 13 13 13 13 13 13 12 12 12 11 11 11 10 9 9 8 8 8
27 28 29 30 31 31 30 30 30 30 30 29 28 28 27 27 26 25 24 23 23 22 21 20 19 18 17 16 16 15 15 15 14 14 14 13 13 13 13 13 13 12 12 12 11 10 10 10 10
27 28 29 30 31 30 30 29 31 31 31 30 29 28 28 27 27 26 25 24 23 23 22 21 20 19 18 17 17 17 16 16 15 15 15 14 14 14 14 13 13 13 13 13 13 12 12 12 12
27 28 29 30 29 29 29 29 30 30 31 30 30 29 28 27 27 26 26 26 24 23 23 22 21 20 19 18 17 17 17 16 16 15 15 15 15 15 15 14 14 14 14 14 14 13 13 13 13
25 26 28 29 28 28 28 29 29 30 30 30 30 29 28 27 27 25 25 26 25 24 23 23 22 21 19 19 19 18 17 17 17 17 16 16 16 16 16 15 15 15 15 15 15 15 15 15 15
24 25 26 27 27 27 27 28 28 28 28 29 30 29 28 27 27 26 25 26 25 25 23 22 23 22 21 21 20 20 19 19 19 18 18 17 17 17 16 16 16 16 16 16 17 17 17 17 17
23 23 24 25 25 25 25 26 27 27 27 27 29 30 28 28 28 27 27 27 26 25 25 24 23 22 22 22 22 21 21 21 21 20 20 19 18 18 17 18 18 18 18 18 18 18 19 19 19
22 23 23 24 24 24 24 24 25 26 26 26 28 30 29 28 28 29 28 28 27 26 25 25 24 23 23 23 23 22 22 22 22 21 21 21 20 19 19 19 19 19 19 20 19 19 20 21 21
21 22 21 21 22 22 23 23 23 24 26 26 27 28 28 28 29 29 29 28 28 27 26 26 25 25 25 24 24 24 23 23 23 23 23 23 22 21 21 21 21 21 21 21 21 21 21 21 22
21 20 19 19 20 21 21 22 22 22 24 24 25 26 27 29 29 30 29 29 29 28 27 27 26 25 25 25 25 24 24 24 23 23 23 23 23 22 22 21 22 22 22 22 22 22 22 22 22
19 18 18 18 19 20 20 20 21 21 22 23 24 24 26 29 29 29 30 29 29 28 27 28 27 26 26 26 25 24 24 25 24 24 24 24 23 23 22 22 22 22 22 23 23 22 23 23 23
17 16 17 16 17 19 20 20 20 21 21 23 23 24 26 28 29 29 29 29 29 29 28 29 28 27 27 27 26 26 26 26 25 25 25 25 25 24 24 23 22 22 23 23 24 24 24 24 25
16 16 16 15 16 17 18 19 20 20 21 22 24 25 26 27 29 29 28 29 29 30 30 29 29 28 27 27 27 27 28 27 27 27 27 26 26 26 26 25 25 24 24 24 25 25 25 26 26
15 15 16 16 16 16 16 18 19 20 21 22 24 25 26 27 28 28 28 28 29 30 30 30 30 30 30 27 27 28 28 28 28 28 28 28 28 28 28 27 27 26 26 26 26 27 27 27 27
14 15 15 15 15 15 15 16 17 19 20 21 24 25 26 28 28 29 29 29 28 29 30 31 31 31 31 30 29 28 29 29 30 29 29 28 29 29 30 29 28 28 28 28 28 28 29 29 29
12 13 13 13 13 14 14 14 16 18 19 20 22 24 26 28 29 29 29 30 30 29 30 31 31 32 32 31 30 30 29 29 29 30 30 29 29 30 30 31 30 30 30 30 30 30 30 31 31
11 11 11 11 11 12 13 14 15 16 18 19 21 23 25 27 28 28 29 29 30 30 30 31 31 31 31 31 29 30 30 31 30 31 31 31 31 31 32 32 32 32 32 33 33 33 32 32 32
10 11 12 12 11 11 12 13 14 16 17 18 20 23 24 25 27 28 29 29 29 29 29 29 30 30 30 30 30 29 30 31 30 31 32 31 31 32 33 34 34 34 34 34 34 34 34 34 34
9 10 11 11 12 11 11 12 13 15 16 18 20 22 23 24 26 27 27 28 28 28 29 29 28 29 30 30 30 30 30 30 30 31 32 32 32 32 33 33 34 35 35 35 35 35 36 36 37
10 10 11 11 12 12 11 11 12 15 16 17 19 20 21 23 24 26 27 28 28 29 29 28 29 29 29 30 30 30 30 30 31 32 34 34 34 34 34 34 34 35 36 36 37 37 38 38 39
12 12 12 12 12 12 12 11 11 13 15 16 18 20 21 22 24 25 25 27 28 28 29 28 28 28 29 30 30 30 31 31 32 33 34 36 36 35 36 36 36 36 36 36 37 38 38 39 40
13 13 13 13 13 13 13 12 12 14 15 16 18 20 21 23 24 26 26 26 27 28 29 29 29 29 30 31 31 31 32 33 33 33 34 35 36 37 37 37 38 38 39 39 39 39 39 40 41
14 14 14 13 13 13 13 14 14 15 15 16 18 19 21 23 25 26 27 27 28 29 29 30 31 31 31 32 32 32 32 33 34 34 35 35 36 37 37 38 39 39 39 41 41 42 42 42 42
14 14 14 14 14 15 14 16 16 17 16 17 18 20 21 23 24 26 27 28 29 30 31 31 31 32 32 32 33 34 34 34 35 35 36 36 37 38 39 39 40 40 41 42 43 44 44 43 43
15 15 15 15 16 16 15 16 17 17 17 19 20 21 22 24 25 27 27 28 29 31 32 32 32 33 33 34 34 34 34 35 36 36 37 37 38 39 40 40 41 42 43 43 44 45 45 45 45
16 16 17 18 18 18 17 17 17 17 18 19 21 22 24 25 26 27 28 28 30 31 33 34 34 33 34 35 35 35 35 36 37 37 38 39 40 40 41 42 43 43 43 44 45 46 46 46 46
18 18 18 19 20 20 20 19 18 18 19 20 21 22 24 25 26 27 28 29 30 31 32 34 34 34 35 36 37 38 37 38 38 39 40 40 41 42 42 43 44 45 45 46 47 47 47 47 47
20 20 20 21 22 22 21 21 20 20 21 21 22 23 24 26 27 28 29 29 30 31 32 33 34 35 36 36 37 38 39 40 40 42 42 42 43 44 45 45 46 46 47 47 47 47 48 49 49
22 22 22 23 24 24 24 23 22 22 23 24 24 25 26 27 28 29 30 31 32 32 33 35 36 36 37 38 39 39 40 41 43 43 43 44 45 46 47 47 48 48 48 48 49 49 49 50 50
25 25 25 25 26 26 26 25 24 24 25 26 27 28 29 29 29 30 31 33 34 34 35 36 37 38 38 39 40 41 42 42 43 44 45 46 47 47 48 48 48 48 49 49 50 51 51 51 51
Wind_Direction
265 262 260 259 257 256 256 255 253 250 247 244 242 242 240 239 237 237 236 234 233 232 231 230 230 229 228 228 228 228 231 233 235 236 236 233 232 234 236 235 235 236 237 239 240 243 245 246 247
266 263 260 258 257 256 256 254 251 248 246 244 242 241 240 238 236 235 235 233 232 231 231 232 232 230 230 231 232 233 234 236 239 239 238 237 235 236 237 238 238 240 241 242 242 243 246 249 253
266 264 261 259 257 256 256 254 251 248 245 243 241 240 239 237 235 233 232 231 231 230 230 231 233 231 231 232 235 237 237 238 240 238 238 238 237 238 239 239 240 241 243 244 244 246 248 251 254
266 264 261 259 258 255 255 254 252 249 245 242 240 238 238 237 234 231 229 228 228 230 230 230 232 232 232 233 235 237 238 238 238 238 239 239 239 238 240 242 243 243 244 246 247 248 251 252 254
267 264 261 259 258 256 254 254 251 248 245 242 240 239 236 235 231 229 227 226 227 229 231 231 232 232 232 233 235 236 237 238 238 238 239 239 238 239 241 242 245 247 248 249 250 252 253 255 256
266 264 260 260 259 256 253 252 251 247 245 242 239 237 234 232 229 226 225 225 227 229 230 232 233 233 233 233 234 236 238 239 239 239 240 241 240 241 242 243 246 250 252 253 254 255 256 257 259
269 264 260 260 258 255 253 250 250 245 243 242 238 235 231 229 226 225 225 226 228 229 230 232 232 233 234 236 237 237 238 239 240 241 242 242 242 242 244 246 248 251 253 255 256 258 260 261 262
271 268 263 261 258 255 253 250 248 245 241 240 238 234 231 228 226 225 225 226 227 229 230 233 234 235 236 238 238 238 238 239 241 242 243 243 243 245 247 249 250 252 254 256 258 260 262 263 264
272 270 270 262 257 254 252 253 250 247 243 241 240 237 234 230 227 226 225 225 227 228 231 234 234 236 239 239 239 240 240 240 241 242 243 244 244 246 249 251 253 254 255 257 260 261 263 264 265
274 271 271 264 259 256 253 253 251 247 244 241 240 236 232 230 228 226 226 225 227 229 232 233 234 234 237 239 238 239 240 242 242 242 243 244 245 246 249 252 254 255 256 258 260 262 264 265 266
275 271 269 267 262 257 253 253 251 248 245 240 237 234 230 227 227 226 226 227 228 230 231 233 233 233 236 239 238 240 241 243 242 242 244 245 247 248 250 253 254 255 257 258 260 262 265 267 269
275 270 268 266 263 259 255 253 252 247 242 237 235 232 228 227 225 225 227 228 229 232 232 233 235 236 237 238 240 241 243 243 242 244 246 247 247 249 251 253 255 256 257 259 262 264 266 268 270
273 270 267 265 265 262 257 253 249 245 239 236 232 230 228 225 224 225 227 227 229 231 232 234 237 238 240 239 241 243 244 245 246 247 248 248 248 249 251 253 255 257 258 261 263 266 267 269 270
276 274 268 264 265 263 259 254 247 240 236 232 230 227 226 225 224 225 227 228 229 232 235 236 239 241 241 242 243 244 245 247 248 249 250 249 250 251 252 253 255 258 259 261 264 265 267 269 271
280 276 271 265 264 263 260 253 247 239 236 233 229 227 226 225 225 226 227 229 231 234 237 239 241 243 244 248 247 247 247 247 248 249 250 250 251 252 253 254 256 258 261 262 264 266 268 269 270
281 277 273 267 263 263 258 250 248 241 236 233 231 228 227 227 226 227 229 231 234 237 239 241 243 245 249 250 249 248 249 249 250 249 249 251 251 252 254 255 257 259 261 263 265 267 268 268 270
285 279 275 271 269 266 260 250 249 242 235 232 230 227 227 227 227 229 230 232 236 239 242 244 245 246 246 247 249 249 249 250 251 251 251 253 253 254 254 256 257 259 262 264 266 267 267 268 270
292 283 275 272 270 269 264 255 247 240 232 229 228 228 229 230 230 231 232 235 238 240 243 245 247 247 247 248 251 251 251 252 252 252 254 254 255 256 256 257 259 261 263 265 266 267 268 268 270
292 290 282 274 271 275 271 259 246 238 232 228 228 227 230 232 234 234 235 236 239 240 242 244 247 249 251 252 253 254 253 254 254 254 255 256 257 258 260 260 261 262 263 265 267 268 269 269 270
290 290 285 278 274 277 274 262 246 239 234 232 229 228 230 232 235 237 239 240 241 241 244 247 249 251 253 254 255 256 257 256 257 257 258 259 260 261 262 263 263 264 265 266 267 269 270 269 270
286 288 287 282 278 275 272 261 252 245 239 237 233 232 233 236 238 241 242 242 243 245 247 251 253 252 253 255 257 257 259 260 260 260 261 262 262 264 264 265 265 266 267 268 269 270 271 272 273
282 283 284 282 278 272 267 257 251 250 245 242 239 238 240 240 241 243 244 245 246 247 249 250 254 256 257 257 257 258 260 261 262 263 264 264 264 265 266 266 266 267 268 270 271 271 273 274 274
280 281 280 278 278 275 267 260 253 253 249 247 245 244 245 245 245 246 248 248 248 249 250 252 255 257 258 259 259 260 261 262 263 264 265 265 265 266 267 267 267 268 269 271 272 272 274 275 276
281 279 276 275 276 275 271 267 260 256 255 251 247 248 248 248 248 248 249 249 249 251 252 254 256 258 259 259 260 261 262 263 264 265 266 266 267 267 268 269 269 270 271 272 273 274 275 275 276
278 278 279 278 276 273 272 270 265 260 259 256 253 252 252 251 251 251 251 252 253 253 254 256 257 259 260 260 260 260 262 264 265 266 267 268 268 269 270 270 271 272 272 272 274 274 275 275 275
276 275 277 278 277 274 274 272 268 262 261 259 257 255 253 253 253 254 255 256 257 257 257 258 259 260 260 261 261 262 263 265 266 267 268 269 269 270 271 272 272 273 273 274 274 274 274 274 275
278 275 275 277 276 275 274 272 268 265 263 261 260 259 257 257 258 259 259 259 260 260 260 260 261 261 262 263 263 264 264 265 267 268 269 270 270 271 272 273 273 273 273 274 274 274 274 274 275
278 276 276 276 277 276 275 273 272 268 267 264 262 261 261 261 262 262 261 262 262 263 263 262 263 263 264 266 265 265 266 266 268 268 269 271 272 273 273 274 275 274 274 275 276 275 275 275 275
276 274 275 276 277 277 277 276 274 271 269 267 265 263 263 263 264 263 263 263 263 264 264 265 265 265 265 266 267 267 267 268 268 269 270 271 272 273 274 275 276 275 275 277 277 276 276 276 276
275 274 274 276 277 277 277 277 276 273 271 269 267 266 266 266 266 266 266 266 265 266 267 267 267 267 267 268 269 268 269 270 270 271 273 273 274 274 275 275 276 276 277 277 277 277 277 276 275
Height
5815 5815 5815 5816 5815 5815 5816 5819 5821 5823 5824 5826 5828 5830 5833 5835 5838 5841 5841 5842 5843 5845 5847 5848 5849 5851 5852 5853 5854 5855 5856 5856 5857 5858 5859 5859 5860 5860 5861 5861 5862 5862 5863 5863 5864 5864 5865 5865 5865
5807 5807 5808 5807 5807 5807 5810 5812 5813 5815 5817 5819 5822 5824 5826 5828 5831 5834 5835 5837 5839 5841 5843 5844 5846 5847 5849 5850 5851 5852 5853 5854 5854 5855 5856 5857 5857 5858 5858 5859 5859 5860 5860 5861 5862 5862 5862 5863 5863
5799 5799 5800 5799 5799 5801 5804 5805 5806 5808 5810 5812 5815 5817 5820 5822 5825 5828 5830 5832 5834 5836 5838 5840 5842 5843 5845 5846 5847 5849 5850 5851 5851 5852 5853 5854 5854 5855 5856 5856 5857 5857 5858 5858 5859 5859 5860 5860 5861
5792 5791 5791 5792 5792 5795 5796 5796 5798 5800 5802 5805 5807 5809 5813 5817 5819 5822 5825 5827 5829 5832 5834 5836 5838 5840 5841 5843 5844 5845 5846 5847 5848 5849 5850 5851 5852 5852 5853 5853 5854 5854 5855 5856 5856 5857 5857 5858 5858
5784 5784 5784 5784 5786 5787 5788 5789 5790 5792 5795 5798 5800 5803 5806 5810 5813 5816 5819 5822 5825 5827 5829 5832 5834 5836 5837 5839 5840 5841 5842 5844 5845 5846 5847 5847 5848 5849 5850 5850 5851 5851 5852 5852 5853 5854 5854 5854 5855
5778 5778 5778 5778 5780 5780 5781 5782 5784 5786 5788 5790 5793 5796 5800 5803 5807 5811 5814 5817 5820 5823 5825 5828 5830 5831 5833 5835 5836 5837 5838 5840 5841 5842 5843 5844 5845 5846 5846 5847 5848 5848 5848 5849 5850 5850 5851 5851 5851
5773 5772 5772 5772 5773 5774 5775 5776 5777 5779 5781 5784 5787 5790 5794 5797 5801 5805 5809 5812 5815 5818 5821 5823 5825 5827 5828 5830 5831 5833 5834 5836 5837 5838 5839 5840 5841 5842 5843 5843 5844 5844 5845 5845 5846 5846 5847 5847 5847
5767 5767 5766 5767 5767 5768 5769 5770 5771 5773 5775 5778 5781 5784 5788 5792 5796 5800 5803 5807 5810 5813 5816 5818 5821 5822 5824 5825 5826 5828 5829 5831 5832 5834 5835 5836 5837 5838 5839 5839 5840 5840 5841 5841 5842 5842 5842 5843 5843
5762 5763 5761 5762 5762 5763 5763 5764 5765 5767 5770 5772 5775 5779 5783 5787 5790 5794 5798 5802 5805 5808 5810 5813 5816 5817 5818 5820 5821 5823 5824 5826 5828 5829 5830 5831 5832 5833 5834 5835 5835 5836 5836 5837 5837 5838 5838 5838 5838
5757 5757 5757 5757 5757 5757 5758 5759 5760 5762 5764 5767 5770 5773 5777 5781 5785 5788 5792 5796 5800 5802 5805 5808 5810 5811 5813 5815 5816 5818 5819 5821 5822 5823 5825 5826 5827 5828 5829 5830 5830 5831 5831 5832 5832 5833 5833 5833 5833
5752 5752 5752 5752 5752 5752 5752 5754 5755 5757 5759 5762 5765 5768 5772 5775 5779 5783 5787 5790 5794 5797 5799 5802 5804 5806 5807 5809 5811 5813 5814 5816 5817 5818 5819 5820 5822 5823 5824 5825 5825 5826 5826 5827 5827 5828 5828 5828 5828
5748 5747 5747 5747 5747 5747 5748 5749 5750 5752 5755 5757 5760 5763 5767 5770 5773 5777 5781 5785 5788 5791 5794 5797 5799 5800 5802 5804 5806 5808 5809 5811 5812 5813 5814 5815 5816 5818 5819 5819 5820 5821 5821 5822 5822 5822 5823 5823 5823
5743 5743 5743 5742 5742 5742 5743 5744 5746 5747 5749 5752 5755 5758 5762 5765 5768 5772 5776 5779 5782 5786 5788 5791 5793 5795 5797 5798 5800 5802 5804 5805 5806 5808 5809 5810 5811 5812 5813 5814 5815 5816 5816 5817 5817 5817 5817 5817 5817
5740 5739 5738 5738 5738 5738 5739 5740 5741 5743 5745 5747 5750 5754 5757 5760 5763 5767 5771 5773 5776 5780 5783 5785 5788 5789 5791 5793 5795 5797 5798 5799 5800 5802 5803 5804 5805 5806 5808 5809 5809 5810 5811 5811 5811 5811 5812 5812 5812
5736 5735 5735 5735 5735 5735 5736 5737 5738 5739 5741 5744 5747 5750 5753 5756 5759 5763 5766 5769 5772 5775 5777 5780 5782 5784 5785 5787 5788 5790 5792 5793 5794 5795 5797 5798 5799 5800 5801 5802 5803 5804 5804 5805 5805 5805 5805 5806 5805
5733 5732 5732 5732 5731 5732 5734 5735 5735 5736 5738 5740 5743 5746 5749 5752 5755 5758 5761 5765 5767 5770 5772 5774 5776 5778 5779 5781 5782 5784 5785 5786 5788 5789 5790 5791 5792 5794 5795 5796 5797 5797 5798 5798 5799 5799 5799 5799 5799
5731 5730 5729 5729 5729 5729 5730 5732 5732 5733 5735 5737 5740 5742 5745 5748 5751 5754 5757 5760 5762 5765 5767 5769 5770 5772 5773 5774 5775 5777 5778 5779 5781 5782 5783 5784 5785 5787 5788 5789 5790 5790 5791 5791 5792 5792 5792 5792 5791
5729 5728 5727 5727 5727 5727 5727 5728 5729 5730 5732 5734 5736 5739 5741 5744 5747 5750 5752 5755 5758 5760 5761 5763 5764 5766 5767 5767 5769 5770 5771 5772 5774 5775 5776 5777 5778 5780 5780 5781 5782 5783 5783 5784 5784 5784 5784 5784 5784
5727 5726 5725 5725 5724 5725 5725 5725 5726 5727 5729 5731 5733 5736 5738 5741 5743 5745 5748 5750 5752 5754 5756 5757 5758 5760 5761 5762 5763 5764 5765 5766 5768 5769 5769 5770 5771 5772 5773 5773 5774 5775 5775 5776 5776 5776 5776 5775 5775
5725 5724 5723 5723 5722 5722 5722 5723 5723 5724 5726 5728 5730 5732 5734 5737 5739 5741 5743 5745 5747 5749 5751 5752 5753 5754 5755 5756 5757 5758 5759 5760 5761 5762 5762 5763 5764 5764 5765 5766 5766 5767 5767 5767 5767 5767 5767 5767 5766
5723 5723 5722 5721 5720 5720 5720 5721 5721 5721 5723 5724 5726 5728 5730 5732 5734 5736 5738 5740 5741 5743 5745 5745 5746 5748 5749 5750 5751 5752 5752 5753 5754 5754 5755 5755 5756 5756 5757 5757 5758 5758 5758 5758 5758 5758 5757 5757 5756
5721 5720 5719 5718 5718 5718 5718 5718 5719 5719 5720 5721 5723 5724 5726 5728 5729 5731 5733 5734 5736 5737 5738 5740 5740 5741 5743 5743 5744 5745 5745 5746 5746 5747 5747 5748 5748 5748 5749 5749 5749 5749 5749 5749 5749 5748 5748 5747 5746
5718 5717 5717 5716 5715 5715 5715 5715 5717 5716 5716 5718 5719 5720 5722 5723 5724 5726 5727 5728 5730 5731 5732 5733 5734 5735 5735 5736 5737 5738 5738 5738 5739 5739 5739 5740 5740 5740 5740 5740 5740 5740 5740 5740 5739 5738 5737 5737 5736
5715 5715 5714 5713 5712 5712 5712 5712 5713 5712 5713 5713 5715 5716 5717 5718 5719 5720 5721 5722 5723 5724 5725 5726 5727 5728 5728 5729 5729 5730 5730 5730 5731 5731 5731 5731 5731 5731 5731 5731 5731 5730 5730 5730 5729 5728 5727 5726 5725
5712 5712 5711 5710 5709 5709 5709 5708 5709 5708 5709 5709 5710 5711 5712 5712 5713 5714 5715 5716 5716 5717 5718 5719 5720 5720 5720 5721 5721 5721 5721 5722 5722 5722 5722 5722 5722 5721 5721 5721 5720 5720 5719 5719 5718 5717 5715 5714 5713
5708 5708 5708 5707 5705 5705 5704 5704 5705 5704 5704 5704 5705 5705 5706 5707 5707 5708 5708 5709 5710 5710 5710 5711 5711 5712 5712 5712 5712 5713 5713 5713 5713 5713 5712 5712 5712 5711 5711 5710 5709 5709 5708 5707 5706 5705 5703 5702 5701
5704 5703 5703 5702 5700 5700 5700 5700 5700 5700 5699 5699 5699 5700 5700 5700 5701 5701 5702 5702 5702 5702 5702 5703 5703 5703 5703 5703 5703 5704 5703 5703 5703 5703 5702 5702 5701 5701 5700 5699 5698 5697 5696 5695 5694 5693 5691 5690 5689
5699 5698 5698 5697 5695 5694 5695 5695 5695 5694 5694 5694 5693 5693 5694 5694 5694 5694 5695 5695 5695 5694 5694 5694 5694 5694 5694 5694 5694 5694 5694 5693 5692 5692 5692 5691 5690 5689 5688 5687 5686 5684 5683 5682 5681 5680 5678 5677 5676
5693 5693 5691 5691 5690 5689 5688 5691 5689 5688 5688 5687 5687 5687 5687 5687 5687 5687 5687 5686 5686 5686 5685 5685 5685 5685 5684 5684 5683 5683 5683 5682 5681 5680 5680 5679 5678 5677 5676 5675 5673 5672 5670 5669 5668 5666 5665 5664 5663
5686 5686 5685 5685 5684 5682 5681 5685 5682 5681 5680 5679 5679 5679 5679 5679 5678 5678 5678 5678 5677 5677 5676 5676 5675 5674 5674 5673 5673 5672 5671 5671 5670 5669 5668 5667 5666 5664 5663 5662 5660 5659 5658 5656 5655 5653 5651 5650 5649